Location: Klickitat County Star Party
(45.8642°N, 120.6771°W)
Time: 04:42:03
(UTC-07:00)

SO-50 - Pass Details

Date: 27 May 2019
Orbit: 586 x 700 km, 64.6° (Epoch: 18 June)

Event Time Altitude Azimuth Distance (km) Brightness Sun altitude
Rises 23:45:21 0° 327° (NNW) 3,093 ? -20.6°
Reaches altitude 10° 23:49:10 10° 356° (N) 2,167 ? -20.8°
Maximum altitude 23:51:17 13° 22° (NNE) 1,988 ? -20.9°
Drops below altitude 10° 23:53:24 10° 48° (NE) 2,151 ? -21.0°
Sets 23:57:10 0° 77° (ENE) 3,046 ? -21.2°
